Starlink 31220

operational
NORAD ID: 59039 Int'l Des: 2024-038 Owner: SPXS Country: US Constellation: starlink
LEOCIRCULAR

Starlink 31220について

説明を読み込み中...

リアルタイム位置

3D地球を読み込み中...

次回通過

高度履歴

Altitude vs Time

uPlot chart will show altitude changes over time

軌道要素

1 59039U 24038S 25307.52703229 .00002874 00000-0 11387-3 0 9994
2 59039 43.0031 19.4786 0000735 269.4169 90.6598 15.27593445 95462
Epoch: Nov 3, 2025 • Age: 16 hours

現在のステータス

高度 486.3 km
速度 7.63 km/s
衛星直下点 41.38°N, 10.05°E
打ち上げ日 Feb 25, 2024
運用期間 1.6 years
タイプ internet

技術仕様

分類 Payload
質量 730.00 kg
乾燥質量 700.00 kg
総質量 730.00 kg
長さ 0.30 m
直径 4.10 m
スパン 29.00 m
形状 Box + pan
製造者 SPXS
バスタイプ Starlink V2M
フェーズステータス In Orbit
所有者/国 SPXS/US

大規模コンステレーション

Loading constellations...